User: anonymous   Login
Location: Cisewo
(53.3833°N, 14.9000°E)
Time: 19:06:37
(UTC+00:00)
Language:

COBE Rocket - Orbit

View from above orbital plane
View from above orbital plane
View from above satellite
View from above satellite

Ground track
Ground track

The orbit data is extracted from the following two-line orbital elements,

1 20323U 89089B   21171.50985933  .00000019  00000-0  13867-4 0  9997
2 20323  97.1217 265.3639 0072507 152.2074 208.3027 14.48405391666677
Epoch (UTC): 20 June 2021 12:14:11
Eccentricity: 0.0072507
inclination: 97.1217°
perigee height: 679 km
apogee height: 782 km
right ascension of ascending node: 265.3639°
argument of perigee: 152.2074°
revolutions per day: 14.48405391
mean anomaly at epoch: 208.3027°
orbit number at epoch: 66667

The dashed part of the orbit path shows where the satellite is in the earth's shadow,  

DLR